Regional Weather Roundup
Issued by NWS Cleveland, OH

Home | Current Version | Previous Version | Text Only | Print | Product List | Glossary Off
Versions: 1 2 3 4 5 6 7 8 9 10 11 12 13 14 15 16 17 18 19 20 21 22 23 24 25 26 27 28 29 30 31 32 33 34 35 36 37 38 39 40 41 42 43 44 45 46 47 48 49 50

110
ASUS41 KCLE 231702
RWRCLE
OHIO REGIONAL WEATHER ROUNDUP
NATIONAL WEATHER SERVICE CLEVELAND, OH
100 PM EDT THU MAR 23 2017

NOTE: "FAIR" INDICATES FEW OR NO CLOUDS BELOW 12,000 FEET WITH NO
SIGNIFICANT WEATHER AND/OR OBSTRUCTIONS TO VISIBILITY.

OHZ001>008-015>018-024>027-034-035-043-044-231800-
   NORTHWEST OHIO

CITY           SKY/WX    TMP DP  RH WIND       PRES   REMARKS
DEFIANCE       PTSUNNY   38  14  37 E8        30.47F
FINDLAY        SUNNY     41  14  33 SE13      30.44F
TOLEDO EXPRESS SUNNY     40   8  26 E9        30.46F
TOLEDO EXEC    SUNNY     41  12  30 SE12      30.48F
LIMA           PTSUNNY   42  20  41 SE10      30.43F
$$

OHZ009>014-019>023-028>033-038-089-231800-
   NORTHEAST OHIO

CITY           SKY/WX    TMP DP  RH WIND       PRES   REMARKS
CLE-HOPKINS    MOSUNNY   41  10  28 SE8       30.52F
CLE-LAKEFRONT  SUNNY     41   8  25 SE9G17    30.51F
CUY CO. ARPT   PTSUNNY   41  12  30 E12       30.52F
LORAIN-ELYRIA  SUNNY     38  11  32 SE10      30.49F
ASHTABULA      SUNNY     37  15  40 E8        30.54F
AKRON-CANTON   MOSUNNY   39  12  33 E9G20     30.49F
WOOSTER        SUNNY     38  14  37 E13       30.48F
MANSFIELD      SUNNY     40  14  34 E12       30.45F
YOUNGSTOWN     MOSUNNY   36   9  32 SE5       30.52F
$$

OHZ042-051>053-060>062-070>072-077>081-231800-
  SOUTHWEST OHIO

CITY           SKY/WX    TMP DP  RH WIND       PRES   REMARKS
CINC-COVINGTON MOSUNNY   48  21  34 E9        30.40F
CINC-LUNKEN    SUNNY     49  20  31 SE10      30.43F
HAMILTON       MOSUNNY   46  20  35 E13       30.44F
DAYTON         PTSUNNY   42  19  39 SE17G23   30.42F
WRIGHT-PAT AFB SUNNY     43  18  36 E13G20    30.43F
DAYTON GENERAL MOSUNNY   42  20  41 E13       30.42F
WILMINGTON     SUNNY     42  20  41 E9        30.43F
$$

OHZ036-037-039>041-045>050-054>059-063>069-073>076-082>088-231800-
  CENTRAL AND SOUTHEAST OHIO

CITY           SKY/WX    TMP DP  RH WIND       PRES   REMARKS
COLUMBUS       PTSUNNY   44   7  21 SE13      30.46F
OSU AIRPORT    SUNNY     43   9  24 SE12G17   30.45F
BOLTON FIELD   MOSUNNY   43  16  33 E9        30.46F
RICKENBACK AFB PTSUNNY   42  15  34 E7        30.46F
NEWARK         SUNNY     44   9  23 E13       30.47F
MARION         SUNNY     43   7  22 S15       30.46F
LANCASTER      SUNNY     47  14  26 E10       30.47F
ZANESVILLE     SUNNY     44   9  23 E8        30.48F
NEW PHILLY     NOT AVBL
$$




USA.gov is the U.S. government's official web portal to all federal, state and local government web resources and services.